Date String (YYYY-MM-DD hh:mm:ss) UTC,Instrument flags,absolute air pressure of the measurement (hPa),sample flow rate (lpm),inlet stack bypass flow (lpm),air temperature of the measurement (°C),ambient temperature measured by the external sensor (°C),aerosol sample conditioner tube jacket temperature (°C),OPC LED temperature (°C),internal box temperature (°C),relative humidity of the measurement (%),span deviation,mass concentration of particles derived from Lorenz-Mie calculation of OPC scattering (μg/m³),mass concentration of particles derived from Lorenz-Mie calculation of OPC scattering (μg/m³),mass concentration of particles derived from Lorenz-Mie calculation of OPC scattering (μg/m³)
DateTimeUTC,F1_M11,P_M11,Q1_M11,Q2_M11,T1_M11,T2_M11,T3_M11,T4_M11,T5_M11,U1_M11,ZSPAN_M11,X2_M11,X0_M11,X1_M11
2024-05-27 05:00:00,SystemResetWarning,0830.0,5.01,000.00,031.3,030.4,000.0,039.7,032.9,010.8,0000.0,0002.93,0005.11,0002.33
2024-05-27 05:01:00,SystemResetWarning,0830.0,5.00,000.00,031.3,030.4,000.0,039.7,032.9,010.9,0000.0,0002.87,0004.43,0002.32
2024-05-27 05:02:00,SystemResetWarning,0830.0,5.00,000.00,031.3,030.4,000.0,039.7,032.9,010.8,0000.0,0002.81,0004.27,0002.32
2024-05-27 05:03:00,SystemResetWarning,0830.0,5.00,000.00,031.3,030.4,000.0,039.7,032.9,010.8,0000.0,0002.84,0004.41,0002.33
2024-05-27 05:04:00,SystemResetWarning,0830.0,5.00,000.00,031.3,030.4,000.0,039.7,032.9,010.8,0000.0,0002.84,0004.51,0002.33
2024-05-27 05:05:00,SystemResetWarning,0830.0,5.00,000.00,031.3,030.4,000.0,039.7,032.9,010.8,0000.0,0002.88,0004.62,0002.33
2024-05-27 05:06:00,SystemResetWarning,0830.0,4.99,000.00,031.3,030.4,000.0,039.7,032.8,010.8,0000.0,0002.94,0004.80,0002.35
2024-05-27 05:07:00,SystemResetWarning,0830.0,5.00,000.00,031.3,030.4,000.0,039.7,032.9,010.7,0000.0,0002.97,0004.90,0002.34
2024-05-27 05:08:00,SystemResetWarning,0830.0,5.01,000.00,031.3,030.4,000.0,039.7,032.8,010.5,0000.0,0002.99,0004.87,0002.34
2024-05-27 05:09:00,SystemResetWarning,0830.0,5.00,000.00,031.2,030.4,000.0,039.7,032.8,010.5,0000.0,0003.03,0004.83,0002.36
2024-05-27 05:10:00,SystemResetWarning,0830.0,5.00,000.00,031.2,030.4,000.0,039.6,032.8,010.6,0000.0,0003.09,0004.99,0002.39
2024-05-27 05:11:00,SystemResetWarning,0830.0,5.00,000.00,031.2,030.4,000.0,039.6,032.8,010.8,0000.0,0003.11,0005.07,0002.39
2024-05-27 05:12:00,SystemResetWarning,0830.0,5.01,000.00,031.2,030.4,000.0,039.6,032.8,011.1,0000.0,0003.10,0005.03,0002.40
2024-05-27 05:13:00,SystemResetWarning,0830.0,5.01,000.00,031.2,030.4,000.0,039.6,032.8,011.1,0000.0,0003.14,0005.20,0002.42
2024-05-27 05:14:00,SystemResetWarning,0830.0,5.00,000.00,031.2,030.4,000.0,039.6,032.8,011.1,0000.0,0003.11,0005.04,0002.41
2024-05-27 05:15:00,SystemResetWarning,0830.0,5.00,000.00,031.2,030.4,000.0,039.6,032.8,011.1,0000.0,0003.11,0005.00,0002.41
2024-05-27 05:16:00,SystemResetWarning,0830.0,5.00,000.00,031.2,030.4,000.0,039.6,032.8,011.2,0000.0,0003.10,0005.30,0002.41
2024-05-27 05:17:00,SystemResetWarning,0830.0,5.00,000.00,031.2,030.4,000.0,039.6,032.8,011.2,0000.0,0003.12,0006.15,0002.43
2024-05-27 05:18:00,SystemResetWarning,0830.0,5.00,000.00,031.2,030.3,000.0,039.6,032.8,011.2,0000.0,0003.13,0006.17,0002.43
2024-05-27 05:19:00,SystemResetWarning,0830.0,5.00,000.00,031.2,030.3,000.0,039.6,032.8,011.2,0000.0,0003.13,0006.15,0002.44
2024-05-27 05:20:00,SystemResetWarning,0830.0,5.00,000.00,031.2,030.3,000.0,039.6,032.8,011.2,0000.0,0003.12,0006.42,0002.43
2024-05-27 05:21:00,SystemResetWarning,0830.0,5.00,000.00,031.2,030.3,000.0,039.6,032.8,011.2,0000.0,0003.09,0006.35,0002.43
2024-05-27 05:22:00,SystemResetWarning,0830.0,5.00,000.00,031.2,030.3,000.0,039.6,032.8,011.2,0000.0,0003.09,0007.18,0002.43
2024-05-27 05:23:00,SystemResetWarning,0830.0,5.00,000.00,031.2,030.3,000.0,039.6,032.7,011.3,0000.0,0003.10,0007.35,0002.43
2024-05-27 05:24:00,SystemResetWarning,0830.0,5.00,000.00,031.2,030.3,000.0,039.6,032.8,011.2,0000.0,0003.10,0007.63,0002.44
2024-05-27 05:25:00,SystemResetWarning,0830.0,5.00,000.00,031.1,030.3,000.0,039.6,032.8,011.1,0000.0,0003.11,0008.01,0002.45
2024-05-27 05:26:00,SystemResetWarning,0830.0,5.00,000.00,031.1,030.3,000.0,039.6,032.7,011.0,0000.0,0003.10,0008.00,0002.44
2024-05-27 05:27:00,SystemResetWarning,0830.0,5.00,000.00,031.1,030.3,000.0,039.6,032.7,010.6,0000.0,0003.11,0008.02,0002.45
2024-05-27 05:28:00,SystemResetWarning,0830.0,5.00,000.00,031.1,030.3,000.0,039.5,032.7,010.4,0000.0,0003.11,0007.93,0002.44
2024-05-27 05:29:00,SystemResetWarning,0830.0,5.00,000.00,031.1,030.3,000.0,039.5,032.7,010.5,0000.0,0003.10,0007.78,0002.44
2024-05-27 05:30:00,SystemResetWarning,0830.0,5.00,000.00,031.1,030.3,000.0,039.5,032.7,010.8,0000.0,0003.10,0007.79,0002.44
2024-05-27 05:31:00,SystemResetWarning,0830.0,5.00,000.00,031.1,030.3,000.0,039.5,032.7,011.1,0000.0,0003.11,0007.77,0002.45
2024-05-27 05:32:00,SystemResetWarning,0830.1,5.00,000.00,031.1,030.2,000.0,039.5,032.7,011.1,0000.0,0003.14,0008.02,0002.45
2024-05-27 05:33:00,SystemResetWarning,0830.0,5.00,000.00,031.1,030.2,000.0,039.5,032.7,011.2,0000.0,0003.12,0007.51,0002.45
2024-05-27 05:34:00,SystemResetWarning,0830.0,5.00,000.00,031.1,030.2,000.0,039.5,032.7,011.2,0000.0,0003.13,0007.35,0002.45
2024-05-27 05:35:00,SystemResetWarning,0830.0,5.00,000.00,031.1,030.2,000.0,039.5,032.7,011.2,0000.0,0003.13,0007.27,0002.45
2024-05-27 05:36:00,SystemResetWarning,0830.0,5.00,000.00,031.1,030.2,000.0,039.5,032.7,011.2,0000.0,0003.15,0006.41,0002.44
2024-05-27 05:37:00,SystemResetWarning,0830.0,5.00,000.00,031.1,030.2,000.0,039.5,032.7,011.2,0000.0,0003.18,0006.53,0002.45
2024-05-27 05:38:00,SystemResetWarning,0830.0,5.00,000.00,031.1,030.2,000.0,039.5,032.6,011.1,0000.0,0003.18,0006.31,0002.45
2024-05-27 05:39:00,SystemResetWarning,0830.0,5.00,000.00,031.0,030.2,000.0,039.5,032.6,011.2,0000.0,0003.21,0005.81,0002.45
2024-05-27 05:40:00,SystemResetWarning,0830.0,5.00,000.00,031.0,030.2,000.0,039.5,032.6,011.2,0000.0,0003.20,0005.73,0002.44
2024-05-27 05:41:00,SystemResetWarning,0830.0,5.00,000.00,031.0,030.2,000.0,039.5,032.6,011.2,0000.0,0003.18,0005.63,0002.45
2024-05-27 05:42:00,SystemResetWarning,0830.0,5.00,000.00,031.0,030.2,000.0,039.5,032.6,011.2,0000.0,0003.19,0005.87,0002.45
2024-05-27 05:43:00,SystemResetWarning,0830.0,5.00,000.00,031.0,030.2,000.0,039.5,032.6,011.3,0000.0,0003.16,0005.39,0002.45
2024-05-27 05:44:00,SystemResetWarning,0830.0,5.00,000.00,031.0,030.2,000.0,039.4,032.6,011.2,0000.0,0003.15,0006.24,0002.44
2024-05-27 05:45:00,SystemResetWarning,0830.0,5.00,000.00,031.0,030.1,000.0,039.4,032.6,011.2,0000.0,0003.18,0006.44,0002.43
2024-05-27 05:46:00,SystemResetWarning,0829.9,4.99,000.00,031.0,030.1,000.0,039.4,032.6,011.1,0000.0,0003.22,0007.06,0002.43
2024-05-27 05:47:00,SystemResetWarning,0829.9,5.00,000.00,031.0,030.1,000.0,039.4,032.6,011.0,0000.0,0003.21,0007.53,0002.43
2024-05-27 05:48:00,SystemResetWarning,0830.0,5.00,000.00,031.0,030.1,000.0,039.4,032.6,011.1,0000.0,0003.16,0007.40,0002.42
2024-05-27 05:49:00,SystemResetWarning,0830.0,5.00,000.00,031.0,030.1,000.0,039.4,032.5,011.1,0000.0,0003.16,0007.40,0002.40
2024-05-27 05:50:00,SystemResetWarning,0830.0,5.01,000.00,031.0,030.1,000.0,039.4,032.5,011.2,0000.0,0003.15,0007.84,0002.41
2024-05-27 05:51:00,SystemResetWarning,0830.0,5.01,000.00,031.0,030.1,000.0,039.4,032.5,011.2,0000.0,0003.15,0008.10,0002.41
2024-05-27 05:52:00,SystemResetWarning,0830.0,4.99,000.00,031.0,030.1,000.0,039.4,032.5,011.2,0000.0,0003.16,0008.10,0002.41
2024-05-27 05:53:00,SystemResetWarning,0830.0,4.99,000.00,031.0,030.1,000.0,039.4,032.6,011.2,0000.0,0003.15,0008.02,0002.40
2024-05-27 05:54:00,SystemResetWarning,0830.0,5.00,000.00,030.9,030.1,000.0,039.4,032.5,011.2,0000.0,0003.14,0007.95,0002.40
2024-05-27 05:55:00,SystemResetWarning,0830.0,5.00,000.00,030.9,030.0,000.0,039.4,032.5,011.2,0000.0,0003.13,0007.32,0002.41
2024-05-27 05:56:00,SystemResetWarning,0830.0,5.01,000.00,030.9,030.0,000.0,039.3,032.5,011.1,0000.0,0003.10,0007.16,0002.41
2024-05-27 05:57:00,SystemResetWarning,0830.0,5.01,000.00,030.9,030.0,000.0,039.3,032.5,011.2,0000.0,0003.05,0006.53,0002.41
2024-05-27 05:58:00,SystemResetWarning,0830.0,5.00,000.00,030.9,030.0,000.0,039.3,032.5,011.3,0000.0,0003.05,0005.96,0002.41
2024-05-27 05:59:00,SystemResetWarning,0830.0,5.00,000.00,030.9,030.0,000.0,039.3,032.5,011.2,0000.0,0003.11,0006.29,0002.42
